Location: Yellowknife
(62.4500°N, 114.3500°W)
Time: 19:34:14
(UTC-07:00)

N. Korean satellite - Visible Passes

Search period start: 24 January 2020 00:00
Search period end: 03 February 2020 00:00
Orbit: 454 x 507 km, 97.2° (Epoch: 24 January)

Date Brightness Start Highest point End Pass type
(mag) Time Alt. Az. Time Alt. Az. Time Alt. Az.
24 Jan 9.7 05:24:40 10° NE 05:26:50 15° E 05:29:01 10° SE visible
24 Jan 6.5 06:57:14 10° NNE 07:00:47 87° ESE 07:04:22 10° SSW visible
24 Jan 7.9 08:31:13 10° N 08:33:47 19° NW 08:36:23 10° W visible
24 Jan 7.8 17:43:15 10° S 17:46:33 43° W 17:49:53 10° NNW visible
25 Jan 7.4 06:31:44 10° NNE 06:35:14 52° ESE 06:38:44 10° S visible
25 Jan 7.4 08:05:26 10° N 08:08:28 27° WNW 08:11:33 10° WSW visible
25 Jan 6.7 17:17:32 10° S 17:20:57 74° WSW 17:24:27 10° NNW visible
25 Jan 9.9 18:53:25 10° WSW 18:55:02 13° W 18:56:39 10° NW visible
26 Jan 8.4 06:06:21 10° NNE 06:09:35 32° E 06:12:51 10° SSE visible
26 Jan 6.9 07:39:43 10° N 07:43:05 42° WNW 07:46:30 10° SW visible
26 Jan 9.5 18:26:37 10° SW 18:29:14 20° W 18:31:51 10° NW visible
27 Jan 9.3 05:41:08 10° NE 05:43:53 21° E 05:46:40 10° SE visible
27 Jan 6.4 07:14:06 10° NNE 07:17:39 68° WNW 07:21:14 10° SSW visible
27 Jan 8.6 18:00:24 10° SSW 18:03:30 31° W 18:06:39 10° NNW visible
28 Jan 9.9 05:16:15 10° NE 05:18:06 13° E 05:19:58 10° ESE visible
28 Jan 6.7 06:48:33 10° NNE 06:52:08 74° ESE 06:55:45 10° S visible
28 Jan 7.5 17:34:29 10° S 17:37:51 51° WSW 17:41:18 10° NNW visible
29 Jan 7.8 06:23:05 10° NNE 06:26:33 44° E 06:30:02 10° S visible
29 Jan 7.3 07:56:41 10° N 07:59:53 32° WNW 08:03:07 10° WSW visible
29 Jan 9.8 18:44:12 10° WSW 18:46:16 15° W 18:48:20 10° NW visible
30 Jan 8.7 05:57:44 10° NNE 06:00:53 28° E 06:04:04 10° SSE visible
30 Jan 6.7 07:31:00 10° N 07:34:29 49° WNW 07:37:59 10° SW visible
30 Jan 9.2 18:17:39 10° SSW 18:20:28 23° W 18:23:21 10° NW visible
31 Jan 9.5 05:32:35 10° NE 05:35:09 18° E 05:37:44 10° SE visible
31 Jan 6.5 07:05:24 10° NNE 07:09:00 80° WNW 07:12:39 10° SSW visible
31 Jan 8.3 17:51:32 10° SSW 17:54:46 37° W 17:58:05 10° NNW visible
01 Feb 10.1 05:07:56 10° ENE 05:09:20 12° E 05:10:45 10° ESE visible
01 Feb 7.1 06:39:52 10° NNE 06:43:27 63° ESE 06:47:06 10° S visible
01 Feb 7.1 17:25:43 10° S 17:29:09 62° WSW 17:32:39 10° NNW visible
01 Feb 10.1 19:02:15 10° W 19:03:19 11° W 19:04:24 10° WNW visible
02 Feb 8.1 06:14:26 10° NNE 06:17:51 38° E 06:21:18 10° SSE visible
02 Feb 7.1 07:47:55 10° N 07:51:16 36° WNW 07:54:39 10° SW visible
02 Feb 9.7 18:35:04 10° SW 18:37:29 17° W 18:39:55 10° NW visible
